Location: Ostrava
(49.8330°N, 18.2830°E)
Time: 09:33:43
(UTC+02:00)

NOAA 19 - Visible Passes

Search period start: 18 October 2017 00:00
Search period end: 28 October 2017 00:00
Orbit: 842 x 861 km, 99.1° (Epoch: 17 October)

Date Brightness Start Highest point End Pass type
(mag) Time Alt. Az. Time Alt. Az. Time Alt. Az.
18 Oct 7.0 03:48:35 10° NE 03:53:19 28° E 03:57:41 11° SSE visible
18 Oct 5.3 05:28:52 10° N 05:34:18 54° WNW 05:39:40 10° SW visible
19 Oct 7.3 03:37:19 10° NE 03:41:41 23° E 03:45:53 10° SE visible
19 Oct 5.2 05:17:18 10° N 05:22:49 65° WNW 05:27:54 12° SSW visible
20 Oct 7.6 03:26:10 10° NE 03:30:00 19° E 03:33:48 10° SE visible
20 Oct 5.1 05:05:44 10° NNE 05:11:20 79° WNW 05:16:06 14° SSW visible
21 Oct 7.8 03:15:12 10° NE 03:18:18 15° E 03:21:24 10° ESE visible
21 Oct 5.2 04:54:12 10° NNE 04:59:48 86° ESE 05:04:18 16° SSW visible
21 Oct 6.5 06:35:56 10° N 06:39:50 20° NW 06:43:43 10° W visible
22 Oct 8.0 03:04:35 10° ENE 03:06:36 12° E 03:08:36 10° ESE visible
22 Oct 5.4 04:42:41 10° NNE 04:48:17 71° ESE 04:52:29 18° S visible
22 Oct 6.3 06:24:10 10° N 06:28:28 23° WNW 06:32:44 10° WSW visible
23 Oct 5.7 04:31:13 10° NNE 04:36:44 58° ESE 04:40:41 19° S visible
23 Oct 6.1 06:12:27 10° N 06:17:05 28° WNW 06:21:41 10° WSW visible
24 Oct 6.1 04:19:46 10° NNE 04:25:09 47° E 04:28:52 19° SSE visible
24 Oct 5.9 06:00:46 10° N 06:05:40 33° WNW 06:10:33 10° WSW visible
25 Oct 6.4 04:08:22 10° NNE 04:13:34 39° E 04:17:02 19° SSE visible
25 Oct 5.7 05:49:07 10° N 05:54:15 39° WNW 05:59:03 11° SW visible
26 Oct 6.8 03:57:00 10° NNE 04:01:56 32° E 04:05:13 18° SE visible
26 Oct 5.5 05:37:29 10° N 05:42:48 47° WNW 05:47:14 15° SW visible
27 Oct 7.1 03:45:42 10° NE 03:50:18 26° E 03:53:23 16° SE visible
27 Oct 5.3 05:25:54 10° N 05:31:20 57° WNW 05:35:24 18° SW visible
